When you browse on this site, cookies collect data to enhance your experience and personalize the content and advertising you see.
Visit our Privacy Policy to learn more. By continuing to use the site, you agree to this use of cookies and data.

Meteo orario Eisenstadt

Oggi, 15 Agosto, Sabato

Tempo Temperatura Precipitazioni Vento Pressione Umidità
00:00 +19°C° 0 mm 2 m/s 721 mm Hg 84%
01:00 +19°C° 0 mm 2 m/s 721 mm Hg 83%
02:00 +20°C° 0.1 mm 1 m/s 721 mm Hg 82%
03:00 +20°C° 0.1 mm 1 m/s 721 mm Hg 82%
04:00 +20°C° 0.1 mm 1 m/s 721 mm Hg 81%
05:00 +20°C° 0.1 mm 1 m/s 721 mm Hg 82%
06:00 +20°C° 0.1 mm 1 m/s 721 mm Hg 82%
07:00 +20°C° 0.1 mm 1 m/s 721 mm Hg 83%
08:00 +21°C° 0.1 mm 1 m/s 721 mm Hg 79%
09:00 +22°C° 0.1 mm 1 m/s 722 mm Hg 76%
10:00 +23°C° 0.1 mm 1 m/s 722 mm Hg 73%
11:00 +25°C° 0.5 mm 1 m/s 721 mm Hg 69%
12:00 +26°C° 0.5 mm 1 m/s 721 mm Hg 65%
13:00 +27°C° 0.5 mm 1 m/s 721 mm Hg 62%
14:00 +27°C° 0.8 mm 1 m/s 721 mm Hg 62%
15:00 +27°C° 0.8 mm 1 m/s 720 mm Hg 63%
16:00 +27°C° 0.8 mm 1 m/s 720 mm Hg 63%
17:00 +25°C° 0.3 mm 1 m/s 720 mm Hg 68%
18:00 +24°C° 0.3 mm 1 m/s 720 mm Hg 72%
19:00 +22°C° 0.3 mm 1 m/s 720 mm Hg 76%
20:00 +22°C° 0.1 mm 1 m/s 720 mm Hg 78%
21:00 +21°C° 0.1 mm 1 m/s 720 mm Hg 80%
22:00 +20°C° 0.1 mm 1 m/s 720 mm Hg 82%
23:00 +20°C° 0.2 mm 1 m/s 720 mm Hg 83%

Domani, 16 Agosto, Domenica

Tempo Temperatura Precipitazioni Vento Pressione Umidità
00:00 +20°C° 0.2 mm 1 m/s 720 mm Hg 85%
01:00 +19°C° 0.2 mm 1 m/s 720 mm Hg 86%
02:00 +19°C° 0.4 mm 1 m/s 720 mm Hg 87%
03:00 +19°C° 0.4 mm 1 m/s 720 mm Hg 88%
04:00 +19°C° 0.4 mm 1 m/s 720 mm Hg 88%
05:00 +19°C° 0.5 mm 1 m/s 720 mm Hg 89%
06:00 +20°C° 0.5 mm 1 m/s 720 mm Hg 89%
07:00 +20°C° 0.5 mm 1 m/s 721 mm Hg 89%
08:00 +22°C° 0.5 mm 1 m/s 721 mm Hg 86%
09:00 +23°C° 0.5 mm 1 m/s 721 mm Hg 83%
10:00 +24°C° 0.5 mm 1 m/s 721 mm Hg 80%
11:00 +24°C° 1.2 mm 1 m/s 721 mm Hg 78%
12:00 +25°C° 1.2 mm 1 m/s 721 mm Hg 75%
13:00 +26°C° 1.2 mm 1 m/s 721 mm Hg 72%
14:00 +26°C° 1 mm 1 m/s 721 mm Hg 71%
15:00 +26°C° 1 mm 1 m/s 720 mm Hg 71%
16:00 +26°C° 1 mm 1 m/s 720 mm Hg 70%
17:00 +25°C° 0.2 mm 1 m/s 720 mm Hg 74%
18:00 +23°C° 0.2 mm 1 m/s 720 mm Hg 79%
19:00 +22°C° 0.2 mm 1 m/s 720 mm Hg 83%
20:00 +21°C° 0.1 mm 1 m/s 720 mm Hg 85%
21:00 +21°C° 0.1 mm 1 m/s 720 mm Hg 87%
22:00 +20°C° 0.1 mm 1 m/s 720 mm Hg 89%
23:00 +20°C° 0 mm 1 m/s 720 mm Hg 90%

Dopodomani, 17 Agosto, Lunedi

Tempo Temperatura Precipitazioni Vento Pressione Umidità
00:00 +20°C° 0 mm 1 m/s 720 mm Hg 90%
01:00 +20°C° 0 mm 1 m/s 720 mm Hg 91%
02:00 +20°C° 0 mm 1 m/s 720 mm Hg 91%
03:00 +19°C° 0 mm 1 m/s 719 mm Hg 91%
04:00 +19°C° 0 mm 1 m/s 719 mm Hg 92%
05:00 +20°C° 0.1 mm 1 m/s 719 mm Hg 90%
06:00 +21°C° 0.1 mm 1 m/s 719 mm Hg 88%
07:00 +22°C° 0.1 mm 1 m/s 719 mm Hg 87%
08:00 +23°C° 0 mm 2 m/s 720 mm Hg 79%
09:00 +25°C° 0 mm 3 m/s 720 mm Hg 72%
10:00 +27°C° 0 mm 3 m/s 720 mm Hg 65%
11:00 +27°C° 0.1 mm 4 m/s 719 mm Hg 62%
12:00 +28°C° 0.1 mm 4 m/s 719 mm Hg 59%
13:00 +29°C° 0.1 mm 5 m/s 719 mm Hg 56%
14:00 +29°C° 0.3 mm 4 m/s 718 mm Hg 58%
15:00 +28°C° 0.3 mm 4 m/s 718 mm Hg 61%
16:00 +28°C° 0.3 mm 3 m/s 717 mm Hg 63%
17:00 +27°C° 0.1 mm 3 m/s 717 mm Hg 68%
18:00 +25°C° 0.1 mm 2 m/s 717 mm Hg 73%
19:00 +24°C° 0.1 mm 1 m/s 717 mm Hg 78%
20:00 +23°C° 0.2 mm 1 m/s 718 mm Hg 80%
21:00 +21°C° 0.2 mm 2 m/s 718 mm Hg 82%
22:00 +20°C° 0.2 mm 2 m/s 718 mm Hg 83%
23:00 +20°C° 0.1 mm 3 m/s 718 mm Hg 84%

18 Agosto, Martedi

Tempo Temperatura Precipitazioni Vento Pressione Umidità
00:00 +19°C° 0.1 mm 3 m/s 719 mm Hg 85%
01:00 +19°C° 0.1 mm 4 m/s 719 mm Hg 86%
02:00 +19°C° 0 mm 3 m/s 719 mm Hg 84%
03:00 +19°C° 0 mm 3 m/s 719 mm Hg 83%
04:00 +19°C° 0 mm 3 m/s 719 mm Hg 82%
05:00 +19°C° 0.1 mm 2 m/s 719 mm Hg 81%
06:00 +19°C° 0.1 mm 2 m/s 720 mm Hg 81%
07:00 +20°C° 0.1 mm 1 m/s 720 mm Hg 81%
08:00 +21°C° 0 mm 1 m/s 720 mm Hg 77%
09:00 +22°C° 0 mm 1 m/s 720 mm Hg 73%
10:00 +23°C° 0 mm 1 m/s 720 mm Hg 68%
11:00 +24°C° 0 mm 1 m/s 720 mm Hg 63%
12:00 +26°C° 0 mm 1 m/s 720 mm Hg 58%
13:00 +27°C° 0 mm 1 m/s 720 mm Hg 52%
14:00 +26°C° 0.5 mm 2 m/s 719 mm Hg 58%
15:00 +26°C° 0.5 mm 2 m/s 719 mm Hg 65%
16:00 +25°C° 0.5 mm 2 m/s 719 mm Hg 71%
17:00 +24°C° 1 mm 1 m/s 718 mm Hg 74%
18:00 +23°C° 1 mm 1 m/s 718 mm Hg 77%
19:00 +22°C° 1 mm 1 m/s 718 mm Hg 81%
20:00 +21°C° 1.5 mm 1 m/s 718 mm Hg 84%
21:00 +20°C° 1.5 mm 1 m/s 718 mm Hg 87%
22:00 +19°C° 1.5 mm 1 m/s 719 mm Hg 91%
23:00 +19°C° 0.7 mm 1 m/s 719 mm Hg 91%

19 Agosto, Mercoledi

Tempo Temperatura Precipitazioni Vento Pressione Umidità
00:00 +19°C° 0.7 mm 1 m/s 719 mm Hg 92%
01:00 +18°C° 0.7 mm 2 m/s 719 mm Hg 93%
02:00 +19°C° 0.3 mm 1 m/s 718 mm Hg 92%
03:00 +19°C° 0.3 mm 1 m/s 718 mm Hg 91%
04:00 +19°C° 0.3 mm 1 m/s 718 mm Hg 90%
05:00 +19°C° 0.2 mm 1 m/s 718 mm Hg 89%
06:00 +19°C° 0.2 mm 1 m/s 718 mm Hg 88%
07:00 +19°C° 0.2 mm 1 m/s 718 mm Hg 86%
08:00 +20°C° 0.2 mm 1 m/s 719 mm Hg 85%
09:00 +20°C° 0.2 mm 1 m/s 719 mm Hg 83%
10:00 +20°C° 0.2 mm 1 m/s 719 mm Hg 82%
11:00 +21°C° 0.2 mm 1 m/s 719 mm Hg 80%
12:00 +22°C° 0.2 mm 1 m/s 719 mm Hg 77%
13:00 +22°C° 0.2 mm 1 m/s 719 mm Hg 75%
14:00 +23°C° 0.1 mm 1 m/s 718 mm Hg 71%
15:00 +24°C° 0.1 mm 1 m/s 718 mm Hg 67%
16:00 +24°C° 0.1 mm 1 m/s 718 mm Hg 63%
17:00 +23°C° 0.1 mm 1 m/s 718 mm Hg 68%
18:00 +22°C° 0.1 mm 1 m/s 718 mm Hg 73%
19:00 +20°C° 0.1 mm 1 m/s 718 mm Hg 78%
20:00 +19°C° 0 mm 2 m/s 718 mm Hg 79%
21:00 +18°C° 0 mm 2 m/s 719 mm Hg 80%
22:00 +18°C° 0 mm 2 m/s 719 mm Hg 81%
23:00 +18°C° 0 mm 3 m/s 719 mm Hg 81%

20 Agosto, Giovedi

Tempo Temperatura Precipitazioni Vento Pressione Umidità
00:00 +17°C° 0 mm 3 m/s 719 mm Hg 81%
01:00 +17°C° 0 mm 3 m/s 719 mm Hg 81%
02:00 +17°C° 0 mm 3 m/s 720 mm Hg 82%
03:00 +17°C° 0 mm 3 m/s 720 mm Hg 83%
04:00 +17°C° 0 mm 2 m/s 720 mm Hg 84%
05:00 +18°C° 0 mm 3 m/s 720 mm Hg 81%
06:00 +18°C° 0 mm 3 m/s 720 mm Hg 79%
07:00 +19°C° 0 mm 3 m/s 720 mm Hg 76%
08:00 +21°C° 0 mm 3 m/s 721 mm Hg 69%
09:00 +24°C° 0 mm 3 m/s 721 mm Hg 62%
10:00 +25°C° 0 mm 3 m/s 722 mm Hg 55%
11:00 +26°C° 0 mm 3 m/s 722 mm Hg 53%
12:00 +26°C° 0 mm 3 m/s 721 mm Hg 51%
13:00 +27°C° 0 mm 3 m/s 721 mm Hg 50%
14:00 +27°C° 0 mm 3 m/s 721 mm Hg 51%
15:00 +27°C° 0 mm 2 m/s 721 mm Hg 51%
16:00 +27°C° 0 mm 2 m/s 721 mm Hg 52%
17:00 +25°C° 0 mm 2 m/s 721 mm Hg 59%
18:00 +23°C° 0 mm 2 m/s 721 mm Hg 66%
19:00 +21°C° 0 mm 1 m/s 721 mm Hg 72%
20:00 +21°C° 0 mm 1 m/s 721 mm Hg 74%
21:00 +20°C° 0 mm 1 m/s 722 mm Hg 75%
22:00 +19°C° 0 mm 1 m/s 722 mm Hg 76%
23:00 +19°C° 0 mm 1 m/s 722 mm Hg 76%
Mostrare altro